Back to catalog

STARLINK-31711

AliveCommunicationsVLEO
NORAD 59438·PAYLOAD·🇺🇸 United States

Launched Apr 7, 2024 from Vandenberg Space Force Base

Loading…

Next Passes (next 24 hours)

TLE

FreshSource: CelesTrak SupGP

Epoch: Sep 14, 2026, 21:17 UTC

1 59438C 24065T   26257.88729167 -.00037917  00000+0 -11204-2 0  2571
2 59438  53.1561 119.8701 0001281  89.5896  93.4958 15.34406003    11

Track STARLINK-31711 in real time with AllMySat

Download on the App Store